Total_Precipitation_Accumulation
0.00 0.00 0.00 0.04 0.06 0.10 0.20 0.25 0.24 0.17 0.10 0.13 0.28 0.33 0.33 0.37 0.32 0.30 0.43 0.39 0.17 0.04
0.00 0.00 0.00 0.00 0.04 0.11 0.10 0.11 0.26 0.38 0.24 0.12 0.13 0.29 0.42 0.44 0.36 0.34 0.30 0.25 0.27 0.16
0.00 0.00 0.00 0.00 0.01 0.11 0.16 0.12 0.12 0.19 0.39 0.35 0.18 0.13 0.16 0.21 0.31 0.46 0.38 0.31 0.29 0.24
0.00 0.00 0.00 0.00 0.00 0.04 0.32 0.30 0.18 0.16 0.16 0.26 0.36 0.24 0.22 0.16 0.12 0.17 0.29 0.37 0.36 0.30
0.00 0.00 0.00 0.00 0.00 0.00 0.05 0.40 0.41 0.29 0.23 0.21 0.18 0.28 0.25 0.25 0.20 0.15 0.12 0.15 0.24 0.30
0.00 0.00 0.00 0.00 0.00 0.00 0.02 0.11 0.48 0.47 0.33 0.33 0.26 0.19 0.20 0.22 0.22 0.24 0.17 0.12 0.10 0.11
0.00 0.00 0.00 0.00 0.00 0.00 0.01 0.19 0.22 0.44 0.38 0.26 0.39 0.36 0.22 0.17 0.21 0.20 0.25 0.22 0.17 0.12
0.01 0.01 0.01 0.01 0.00 0.00 0.00 0.02 0.24 0.31 0.38 0.30 0.19 0.25 0.37 0.32 0.21 0.23 0.19 0.21 0.25 0.23
0.04 0.03 0.03 0.02 0.01 0.01 0.01 0.00 0.02 0.21 0.36 0.41 0.27 0.14 0.11 0.17 0.33 0.28 0.30 0.26 0.17 0.21
0.09 0.08 0.07 0.05 0.04 0.02 0.01 0.02 0.02 0.03 0.21 0.44 0.39 0.29 0.15 0.11 0.10 0.23 0.29 0.22 0.25 0.24
0.15 0.13 0.14 0.14 0.09 0.06 0.03 0.02 0.03 0.07 0.07 0.16 0.34 0.31 0.27 0.26 0.21 0.13 0.09 0.17 0.16 0.17
0.18 0.24 0.22 0.27 0.23 0.13 0.13 0.05 0.02 0.05 0.09 0.10 0.12 0.21 0.25 0.32 0.47 0.42 0.18 0.07 0.06 0.14
0.24 0.31 0.37 0.34 0.45 0.35 0.21 0.16 0.08 0.10 0.14 0.19 0.15 0.14 0.15 0.31 0.61 0.66 0.48 0.26 0.09 0.08
0.23 0.31 0.39 0.47 0.42 0.60 0.43 0.23 0.18 0.14 0.14 0.25 0.25 0.22 0.22 0.19 0.38 0.53 0.63 0.49 0.31 0.15